Home   Weather   Chesapeake   Past weeks

Flag for USA Past Weather in Chesapeake, Virginia, USA — Yesterday and Last 2 Weeks

Now
70 °F

Overcast.


Feels Like: 70 °F
Forecast: 66 / 77 °F
Wind: No wind

Location: Chesapeake Municipal Airport

Current Time: Sep 26, 2016 at 8:26:25 PM

Latest Report: Sep 26, 2016 at 7:55 PM


Visibility: 7 mi

Pressure: 30.06 "Hg

Humidity: 83%

Dew Point: 65 °F

Location of ChesapeakeLocation

Past Weather in Chesapeake — Graph

°F

Chesapeake Temperature Yesterday

Maximum temperature yesterday: 74 °F (at 12:55 PM)
Minimum temperature yesterday: 61 °F (at 11:55 PM)
Average temperature yesterday: 69 °F

High & Low Weather Summary for the Past Weeks

 TemperatureHumidityPressure
High88 °F (Sep 24, 2:15 PM)99% (Sep 18, 3:55 AM)30.24 "Hg (Sep 18, 3:55 AM)
Low56 °F (Sep 26, 6:15 AM)43% (Sep 12, 3:55 PM)29.93 "Hg (Sep 19, 2:35 PM)
Average73 °F83%30.10 "Hg
* Reported Sep 11 7:15 PM — Sep 26 7:15 PM, Chesapeake, Weather by CustomWeather, © 2016

Note: Actual official high and low records may vary slightly from our data, if they occured in-between our weather recording intervals... More about our weather records

Advertising

Chesapeake Weather History for the Previous 24 Hours

Scroll right to see more
 ConditionsComfort  
Time TempWeatherWind HumidityBarometerVisibility
7:15 PM
Mon, Sep 26
70 °FOvercast.3 mph85%30.05 "Hg7 mi
6:55 PM70 °FOvercast.No wind85%30.05 "Hg7 mi
6:35 PM71 °FOvercast.No wind81%30.05 "Hg7 mi
6:15 PM71 °FOvercast.3 mph82%30.05 "Hg7 mi
5:55 PM72 °FLight rain. Overcast.3 mph79%30.05 "Hg7 mi
5:35 PM72 °FLight rain. Overcast.3 mph78%30.05 "Hg10 mi
5:15 PM72 °FOvercast.6 mph75%30.05 "Hg7 mi
4:55 PM72 °FLight rain. Partly sunny.7 mph73%30.05 "Hg10 mi
4:35 PM73 °FLight rain. Scattered clouds.7 mph71%30.06 "Hg10 mi
4:15 PM73 °FMore clouds than sun.5 mph68%30.07 "Hg10 mi
3:55 PM72 °FLight rain. Overcast.3 mph70%30.07 "Hg10 mi
3:15 PM73 °FMore clouds than sun.No wind60%30.09 "Hg7 mi
2:55 PM74 °FOvercast.3 mph61%30.09 "Hg10 mi
2:35 PM74 °FMostly cloudy.3 mph58%30.10 "Hg7 mi
2:15 PM74 °FOvercast.5 mph56%30.09 "Hg7 mi
1:55 PM73 °FOvercast.5 mph56%30.10 "Hg7 mi
1:35 PM72 °FOvercast.7 mph55%30.12 "Hg7 mi
1:15 PM73 °FOvercast.3 mph55%30.13 "Hg7 mi
12:55 PM73 °FOvercast.3 mph54%30.13 "Hg7 mi
12:35 PM73 °FOvercast.5 mph55%30.14 "Hg7 mi
12:15 PM72 °FOvercast.7 mph55%30.14 "Hg7 mi
11:55 AM72 °FOvercast.6 mph56%30.15 "Hg7 mi
11:35 AM72 °FOvercast.6 mph58%30.15 "Hg7 mi
11:15 AM72 °FOvercast.8 mph57%30.15 "Hg7 mi
10:55 AM72 °FOvercast.7 mph58%30.15 "Hg7 mi
10:35 AM71 °FOvercast.7 mph59%30.15 "Hg7 mi
10:15 AM70 °FOvercast.7 mph62%30.15 "Hg7 mi
9:55 AM70 °FScattered clouds.8 mph62%30.15 "Hg10 mi
9:35 AM69 °FScattered clouds.6 mph68%30.15 "Hg7 mi
9:15 AM68 °FScattered clouds.5 mph74%30.15 "Hg7 mi
8:55 AM66 °FSunny.5 mph76%30.14 "Hg7 mi
8:35 AM64 °FSunny.No wind85%30.14 "Hg7 mi
8:15 AM62 °FFog.No wind86%30.14 "Hg5 mi
7:55 AM59 °FSunny.No wind94%30.15 "Hg7 mi
7:35 AM57 °FSunny.No wind96%30.15 "Hg7 mi
7:15 AM56 °FFog.No wind98%30.14 "Hg5 mi
6:55 AM56 °FFog.No wind98%30.14 "Hg5 mi
6:35 AM56 °FClear.No wind98%30.14 "Hg7 mi
6:15 AM56 °FFog.No wind97%30.14 "Hg5 mi
5:55 AM56 °FClear.No wind97%30.14 "Hg7 mi
5:35 AM56 °FClear.No wind97%30.14 "Hg7 mi
5:15 AM57 °FClear.No wind96%30.14 "Hg7 mi
4:55 AM57 °FClear.No wind97%30.15 "Hg7 mi
4:35 AM57 °FClear.No wind97%30.14 "Hg7 mi
4:15 AM57 °FClear.No wind98%30.15 "Hg7 mi
3:55 AM58 °FClear.No wind99%30.15 "Hg7 mi
2:55 AM58 °FFog.No wind98%30.15 "Hg5 mi
2:35 AM59 °FPassing clouds.No wind97%30.16 "Hg7 mi
2:15 AM59 °FPassing clouds.No wind97%30.16 "Hg7 mi
1:55 AM59 °FOvercast.No wind97%30.17 "Hg7 mi
1:15 AM58 °FFog.No wind98%30.17 "Hg3 mi
12:55 AM59 °FFog.No wind97%30.17 "Hg5 mi
12:35 AM60 °FPassing clouds.No wind95%30.17 "Hg7 mi
12:15 AM61 °FPassing clouds.No wind94%30.17 "Hg7 mi
11:55 PM
Sun, Sep 25
61 °FPassing clouds.No wind95%30.17 "Hg7 mi
11:35 PM62 °FPassing clouds.No wind95%30.17 "Hg7 mi
11:15 PM63 °FFog.No wind87%30.17 "Hg5 mi
10:55 PM63 °FOvercast.No wind90%30.18 "Hg7 mi
10:35 PM62 °FFog.No wind90%30.17 "Hg5 mi
10:15 PM63 °FOvercast.3 mph86%30.17 "Hg7 mi
9:55 PM62 °FOvercast.No wind92%30.17 "Hg7 mi
9:35 PM62 °FPassing clouds.No wind92%30.17 "Hg7 mi
9:15 PM62 °FClear.No wind93%30.17 "Hg7 mi
8:55 PM62 °FPassing clouds.No wind95%30.16 "Hg7 mi
8:35 PM61 °FClear.No wind96%30.16 "Hg10 mi
8:15 PM62 °FClear.No wind93%30.16 "Hg10 mi
Weather by CustomWeather, © 2016

See weather overviewHow to use our weather pages